• In Czech Republic
  • List of Countries
  • For 7 days
  • Water Temperature
  • Satellite Maps
  • Weather Map
  • Weather Widgets
  • user-avatar
    Login

    Hourly Weather Kerns

    Today, 27 May, Saturday

    Time Temperature Precipitation Wind Pressure Humidity
    00:00 +20°C° 0 mm 4 mps 762 mmHg 94%
    01:00 +20°C° 0 mm 4 mps 761 mmHg 95%
    02:00 +20°C° 0 mm 4 mps 761 mmHg 95%
    03:00 +20°C° 0 mm 4 mps 761 mmHg 95%
    04:00 +20°C° 0 mm 4 mps 761 mmHg 96%
    05:00 +20°C° 0 mm 4 mps 761 mmHg 96%
    06:00 +20°C° 0 mm 4 mps 761 mmHg 96%
    07:00 +20°C° 0 mm 4 mps 761 mmHg 96%
    08:00 +22°C° 0 mm 4 mps 761 mmHg 89%
    09:00 +25°C° 0 mm 4 mps 762 mmHg 81%
    10:00 +26°C° 0 mm 4 mps 762 mmHg 74%
    11:00 +27°C° 0.1 mm 4 mps 761 mmHg 70%
    12:00 +28°C° 0.1 mm 5 mps 761 mmHg 67%
    13:00 +29°C° 0.1 mm 5 mps 761 mmHg 64%
    14:00 +28°C° 0.1 mm 5 mps 760 mmHg 66%
    15:00 +28°C° 0.1 mm 5 mps 760 mmHg 69%
    16:00 +27°C° 0.1 mm 4 mps 760 mmHg 72%
    17:00 +26°C° 0 mm 4 mps 760 mmHg 79%
    18:00 +23°C° 0 mm 4 mps 760 mmHg 87%
    19:00 +21°C° 0 mm 4 mps 761 mmHg 95%
    20:00 +21°C° 0 mm 4 mps 761 mmHg 95%
    21:00 +21°C° 0 mm 4 mps 761 mmHg 95%
    22:00 +21°C° 0 mm 4 mps 762 mmHg 96%
    23:00 +20°C° 0 mm 4 mps 762 mmHg 96%

    Tomorrow, 28 May, Sunday

    Time Temperature Precipitation Wind Pressure Humidity
    00:00 +20°C° 0 mm 4 mps 761 mmHg 97%
    01:00 +19°C° 0 mm 4 mps 761 mmHg 97%
    02:00 +19°C° 0 mm 4 mps 761 mmHg 97%
    03:00 +19°C° 0 mm 4 mps 761 mmHg 97%
    04:00 +18°C° 0 mm 4 mps 760 mmHg 97%
    05:00 +18°C° 0 mm 4 mps 761 mmHg 97%
    06:00 +18°C° 0 mm 4 mps 761 mmHg 96%
    07:00 +18°C° 0 mm 4 mps 761 mmHg 96%
    08:00 +20°C° 0 mm 4 mps 761 mmHg 87%
    09:00 +23°C° 0 mm 5 mps 762 mmHg 79%
    10:00 +26°C° 0 mm 5 mps 762 mmHg 70%
    11:00 +27°C° 0 mm 5 mps 761 mmHg 66%
    12:00 +28°C° 0 mm 5 mps 761 mmHg 63%
    13:00 +29°C° 0 mm 5 mps 760 mmHg 59%
    14:00 +29°C° 0 mm 5 mps 760 mmHg 61%
    15:00 +29°C° 0 mm 5 mps 760 mmHg 63%
    16:00 +28°C° 0 mm 5 mps 759 mmHg 66%
    17:00 +26°C° 0 mm 5 mps 760 mmHg 76%
    18:00 +23°C° 0 mm 5 mps 760 mmHg 86%
    19:00 +21°C° 0 mm 5 mps 760 mmHg 96%
    20:00 +21°C° 0 mm 5 mps 761 mmHg 96%
    21:00 +21°C° 0 mm 4 mps 761 mmHg 96%
    22:00 +20°C° 0 mm 4 mps 762 mmHg 97%
    23:00 +20°C° 0 mm 4 mps 762 mmHg 97%

    Day after tomorrow, 29 May, Monday

    Time Temperature Precipitation Wind Pressure Humidity
    00:00 +20°C° 0 mm 4 mps 762 mmHg 97%
    01:00 +20°C° 0 mm 4 mps 761 mmHg 97%
    02:00 +20°C° 0 mm 4 mps 761 mmHg 97%
    03:00 +20°C° 0 mm 4 mps 761 mmHg 97%
    04:00 +20°C° 0 mm 4 mps 760 mmHg 97%
    05:00 +20°C° 0 mm 4 mps 761 mmHg 97%
    06:00 +20°C° 0 mm 5 mps 761 mmHg 97%
    07:00 +20°C° 0 mm 5 mps 761 mmHg 97%
    08:00 +22°C° 0 mm 5 mps 762 mmHg 89%
    09:00 +25°C° 0 mm 5 mps 762 mmHg 80%
    10:00 +27°C° 0 mm 6 mps 762 mmHg 72%
    11:00 +28°C° 0 mm 6 mps 762 mmHg 68%
    12:00 +29°C° 0 mm 6 mps 761 mmHg 64%
    13:00 +30°C° 0 mm 6 mps 761 mmHg 59%
    14:00 +29°C° 0 mm 6 mps 760 mmHg 60%
    15:00 +29°C° 0 mm 6 mps 760 mmHg 61%
    16:00 +28°C° 0 mm 6 mps 760 mmHg 62%
    17:00 +26°C° 0 mm 6 mps 760 mmHg 70%
    18:00 +23°C° 0 mm 5 mps 761 mmHg 79%
    19:00 +20°C° 0 mm 5 mps 761 mmHg 87%
    20:00 +20°C° 0 mm 5 mps 762 mmHg 86%
    21:00 +20°C° 0 mm 5 mps 762 mmHg 86%
    22:00 +19°C° 0 mm 5 mps 762 mmHg 85%
    23:00 +19°C° 0 mm 5 mps 762 mmHg 88%

    30 May, Tuesday

    Time Temperature Precipitation Wind Pressure Humidity
    00:00 +19°C° 0 mm 5 mps 762 mmHg 91%
    01:00 +19°C° 0 mm 5 mps 761 mmHg 94%
    02:00 +20°C° 0 mm 5 mps 761 mmHg 94%
    03:00 +20°C° 0 mm 5 mps 760 mmHg 95%
    04:00 +20°C° 0 mm 5 mps 760 mmHg 96%
    05:00 +20°C° 0 mm 5 mps 761 mmHg 96%
    06:00 +20°C° 0 mm 5 mps 761 mmHg 96%
    07:00 +20°C° 0 mm 5 mps 762 mmHg 96%
    08:00 +22°C° 0 mm 5 mps 762 mmHg 89%
    09:00 +24°C° 0 mm 6 mps 762 mmHg 81%
    10:00 +27°C° 0 mm 6 mps 762 mmHg 74%
    11:00 +28°C° 0 mm 6 mps 762 mmHg 69%
    12:00 +29°C° 0 mm 6 mps 761 mmHg 64%
    13:00 +30°C° 0 mm 6 mps 760 mmHg 58%
    14:00 +29°C° 0 mm 6 mps 760 mmHg 63%
    15:00 +29°C° 0 mm 6 mps 760 mmHg 68%
    16:00 +28°C° 0 mm 6 mps 759 mmHg 72%
    17:00 +27°C° 0 mm 6 mps 760 mmHg 76%
    18:00 +26°C° 0 mm 5 mps 760 mmHg 80%
    19:00 +25°C° 0 mm 5 mps 761 mmHg 84%
    20:00 +23°C° 0 mm 5 mps 761 mmHg 86%
    21:00 +23°C° 0 mm 5 mps 762 mmHg 87%
    22:00 +22°C° 0 mm 5 mps 762 mmHg 89%
    23:00 +23°C° 0 mm 5 mps 762 mmHg 90%

    31 May, Wednesday

    Time Temperature Precipitation Wind Pressure Humidity
    00:00 +23°C° 0 mm 5 mps 761 mmHg 91%
    01:00 +23°C° 0 mm 6 mps 761 mmHg 93%
    02:00 +23°C° 0 mm 6 mps 761 mmHg 93%
    03:00 +23°C° 0 mm 6 mps 760 mmHg 93%
    04:00 +23°C° 0 mm 6 mps 760 mmHg 92%
    05:00 +23°C° 0 mm 6 mps 761 mmHg 93%
    06:00 +23°C° 0 mm 6 mps 761 mmHg 93%
    07:00 +23°C° 0 mm 6 mps 761 mmHg 93%
    08:00 +24°C° 0 mm 6 mps 762 mmHg 87%
    09:00 +26°C° 0 mm 6 mps 762 mmHg 80%
    10:00 +27°C° 0 mm 7 mps 762 mmHg 74%
    11:00 +28°C° 0 mm 7 mps 761 mmHg 70%
    12:00 +29°C° 0 mm 7 mps 761 mmHg 67%
    13:00 +30°C° 0 mm 7 mps 760 mmHg 63%
    14:00 +29°C° 0 mm 7 mps 760 mmHg 63%
    15:00 +29°C° 0 mm 7 mps 760 mmHg 64%
    16:00 +28°C° 0 mm 7 mps 760 mmHg 64%
    17:00 +27°C° 0 mm 6 mps 760 mmHg 68%
    18:00 +24°C° 0 mm 6 mps 761 mmHg 72%
    19:00 +22°C° 0 mm 6 mps 762 mmHg 76%
    20:00 +22°C° 0 mm 6 mps 762 mmHg 75%
    21:00 +22°C° 0 mm 6 mps 762 mmHg 74%
    22:00 +22°C° 0 mm 6 mps 763 mmHg 73%
    23:00 +22°C° 0 mm 6 mps 762 mmHg 76%

    1 June, Thursday

    Time Temperature Precipitation Wind Pressure Humidity
    00:00 +22°C° 0 mm 6 mps 762 mmHg 78%
    01:00 +22°C° 0 mm 6 mps 761 mmHg 81%
    02:00 +22°C° 0 mm 6 mps 761 mmHg 83%
    03:00 +22°C° 0 mm 7 mps 761 mmHg 85%
    04:00 +22°C° 0 mm 7 mps 761 mmHg 87%
    05:00 +22°C° 0 mm 7 mps 761 mmHg 86%
    06:00 +22°C° 0 mm 7 mps 762 mmHg 85%
    07:00 +22°C° 0 mm 7 mps 762 mmHg 84%
    08:00 +23°C° 0 mm 7 mps 762 mmHg 80%
    09:00 +24°C° 0 mm 7 mps 763 mmHg 76%
    10:00 +26°C° 0 mm 8 mps 763 mmHg 72%
    11:00 +27°C° 0 mm 7 mps 762 mmHg 72%
    12:00 +27°C° 0 mm 7 mps 762 mmHg 72%
    13:00 +27°C° 0 mm 7 mps 761 mmHg 72%
    14:00 +27°C° 0 mm 7 mps 761 mmHg 73%
    15:00 +27°C° 0 mm 7 mps 761 mmHg 74%
    16:00 +26°C° 0 mm 8 mps 761 mmHg 75%
    17:00 +26°C° 0 mm 8 mps 762 mmHg 79%
    18:00 +24°C° 0 mm 8 mps 762 mmHg 83%
    19:00 +23°C° 0 mm 7 mps 763 mmHg 87%
    20:00 +22°C° 0.1 mm 7 mps 763 mmHg 87%
    21:00 +22°C° 0.1 mm 7 mps 763 mmHg 88%
    22:00 +22°C° 0.1 mm 7 mps 763 mmHg 88%
    23:00 +22°C° 0 mm 7 mps 763 mmHg 86%
    Show more